User: anonymous   Login
Location: Oshawa
(43.9000°N, 78.8670°W)
Time: 01:17:34
(UTC-04:00)
Language:

Iridium 54 - Orbit

View from above orbital plane
View from above orbital plane
View from above satellite
View from above satellite

Ground track
Ground track

The orbit data is extracted from the following two-line orbital elements,

1 25171U 98010C   17086.80754171 +.00000186 +00000-0 +59370-4 0  9992
2 25171 086.4004 024.4196 0002287 083.7918 276.3538 14.34220887000284
Epoch (UTC): 27 March 2017 19:22:51
Eccentricity: 0.0002287
inclination: 86.4004°
perigee height: 776 km
apogee height: 779 km
right ascension of ascending node: 24.4196°
argument of perigee: 83.7918°
revolutions per day: 14.34220887
mean anomaly at epoch: 276.3538°
orbit number at epoch: 28

The dashed part of the orbit path shows where the satellite is in the earth's shadow,  

DLR